Time,TemperatureF,DewpointF,PressureIn,WindDirection,WindDirectionDegrees,WindSpeedMPH,WindSpeedGustMPH,Humidity,HourlyPrecipIn,Conditions,Clouds,dailyrainin,SoftwareType,DateUTC
2013-08-07 00:01:00,51.0,49.3,29.98,NNW,334,0.0,0.0,94,0.00,,,0.00,WeatherCatV1.21B27,2013-08-07 07:01:00,
2013-08-07 00:06:00,51.3,49.9,29.98,NNW,334,0.0,0.0,95,0.00,,,0.00,WeatherCatV1.21B27,2013-08-07 07:06:00,
2013-08-07 00:11:00,51.5,50.1,29.98,NNW,334,0.0,0.0,95,0.00,,,0.00,WeatherCatV1.21B27,2013-08-07 07:11:00,
2013-08-07 00:16:00,51.7,50.3,29.98,NNW,334,0.0,0.0,95,0.00,,,0.00,WeatherCatV1.21B27,2013-08-07 07:16:00,
2013-08-07 00:21:00,51.9,50.5,29.98,NNW,335,0.0,0.0,95,0.00,,,0.00,WeatherCatV1.21B27,2013-08-07 07:21:00,
2013-08-07 00:26:00,52.3,51.2,29.98,NNW,334,0.0,0.0,96,0.00,,,0.00,WeatherCatV1.21B27,2013-08-07 07:26:00,
2013-08-07 00:31:00,52.6,51.5,29.98,NNW,334,0.0,0.0,96,0.00,,,0.00,WeatherCatV1.21B27,2013-08-07 07:31:00,
2013-08-07 00:36:00,52.7,51.6,29.98,NNW,334,0.0,0.0,96,0.00,,,0.00,WeatherCatV1.21B27,2013-08-07 07:36:00,
2013-08-07 00:41:00,52.6,51.2,29.98,NNW,335,0.0,0.0,95,0.00,,,0.00,WeatherCatV1.21B27,2013-08-07 07:41:00,
2013-08-07 00:46:00,52.3,50.0,29.99,NNW,335,0.0,0.0,92,0.00,,,0.00,WeatherCatV1.21B27,2013-08-07 07:46:00,
2013-08-07 00:51:00,51.9,49.3,29.99,NNW,335,0.0,0.0,91,0.00,,,0.00,WeatherCatV1.21B27,2013-08-07 07:51:00,
2013-08-07 00:56:00,51.6,49.1,29.99,NNW,334,0.0,0.0,91,0.00,,,0.00,WeatherCatV1.21B27,2013-08-07 07:56:00,
2013-08-07 01:01:00,51.3,49.0,29.99,NNW,335,0.0,0.0,92,0.00,,,0.00,WeatherCatV1.21B27,2013-08-07 08:01:00,
2013-08-07 01:06:00,51.0,48.8,29.99,NNW,334,0.0,0.0,92,0.00,,,0.00,WeatherCatV1.21B27,2013-08-07 08:06:00,
2013-08-07 01:11:00,50.8,48.8,29.99,NNW,334,0.0,0.0,93,0.00,,,0.00,WeatherCatV1.21B27,2013-08-07 08:11:00,
2013-08-07 01:16:00,50.6,48.7,29.99,NNW,334,0.0,0.0,93,0.00,,,0.00,WeatherCatV1.21B27,2013-08-07 08:16:00,
2013-08-07 01:21:00,50.5,48.8,29.99,NNW,334,0.0,0.0,94,0.00,,,0.00,WeatherCatV1.21B27,2013-08-07 08:21:00,
2013-08-07 01:26:00,50.5,48.8,29.99,NNW,334,0.0,0.0,94,0.00,,,0.00,WeatherCatV1.21B27,2013-08-07 08:26:00,
2013-08-07 01:31:00,50.5,49.1,29.99,NNW,334,0.0,0.0,95,0.00,,,0.00,WeatherCatV1.21B27,2013-08-07 08:31:00,
2013-08-07 01:36:00,50.4,49.0,29.99,NNW,334,0.0,0.0,95,0.00,,,0.00,WeatherCatV1.21B27,2013-08-07 08:36:00,
2013-08-07 01:41:00,50.2,48.5,29.99,NNW,334,0.0,2.0,94,0.00,,,0.00,WeatherCatV1.21B27,2013-08-07 08:41:00,
2013-08-07 01:46:00,50.0,48.6,29.98,NNW,334,0.0,0.0,95,0.00,,,0.00,WeatherCatV1.21B27,2013-08-07 08:46:00,
2013-08-07 01:51:00,50.0,48.6,29.98,NNW,334,0.0,0.0,95,0.00,,,0.00,WeatherCatV1.21B27,2013-08-07 08:51:00,
2013-08-07 01:56:00,49.8,48.4,29.98,NNW,334,0.0,0.0,95,0.00,,,0.00,WeatherCatV1.21B27,2013-08-07 08:56:00,
2013-08-07 02:01:00,49.7,48.3,29.98,NNW,334,0.0,0.0,95,0.00,,,0.00,WeatherCatV1.21B27,2013-08-07 09:01:00,
2013-08-07 02:06:00,49.7,48.3,29.98,NNW,334,0.0,0.0,95,0.00,,,0.00,WeatherCatV1.21B27,2013-08-07 09:06:00,
2013-08-07 02:11:00,49.6,48.2,29.98,NNW,334,0.0,1.0,95,0.00,,,0.00,WeatherCatV1.21B27,2013-08-07 09:11:00,
2013-08-07 02:16:00,49.6,48.2,29.98,NNW,334,0.0,0.0,95,0.00,,,0.00,WeatherCatV1.21B27,2013-08-07 09:16:00,
2013-08-07 02:21:00,49.6,48.5,29.98,NNW,334,0.0,0.0,96,0.00,,,0.00,WeatherCatV1.21B27,2013-08-07 09:21:00,
2013-08-07 02:26:00,49.6,48.5,29.98,NNW,334,0.0,0.0,96,0.00,,,0.00,WeatherCatV1.21B27,2013-08-07 09:26:00,
2013-08-07 02:31:00,49.6,48.2,29.98,NNW,334,0.0,0.0,95,0.00,,,0.00,WeatherCatV1.21B27,2013-08-07 09:31:00,
2013-08-07 02:36:00,49.5,48.1,29.98,NNW,334,0.0,0.0,95,0.00,,,0.00,WeatherCatV1.21B27,2013-08-07 09:36:00,
2013-08-07 02:41:00,49.4,48.0,29.98,NNW,334,0.0,0.0,95,0.00,,,0.00,WeatherCatV1.21B27,2013-08-07 09:41:00,
2013-08-07 02:46:00,49.4,48.0,29.99,NNW,334,0.0,0.0,95,0.00,,,0.00,WeatherCatV1.21B27,2013-08-07 09:46:00,
2013-08-07 02:51:00,49.3,48.2,29.99,NNW,334,0.0,0.0,96,0.00,,,0.00,WeatherCatV1.21B27,2013-08-07 09:51:00,
2013-08-07 02:56:00,49.4,48.3,29.99,NNW,334,0.0,0.0,96,0.00,,,0.00,WeatherCatV1.21B27,2013-08-07 09:56:00,
2013-08-07 03:01:00,49.5,48.4,29.99,NNW,334,0.0,0.0,96,0.00,,,0.00,WeatherCatV1.21B27,2013-08-07 10:01:00,
2013-08-07 03:06:00,49.6,48.5,29.99,NNW,334,0.0,0.0,96,0.00,,,0.00,WeatherCatV1.21B27,2013-08-07 10:06:00,
2013-08-07 03:11:00,49.6,48.5,29.99,NNW,334,0.0,0.0,96,0.00,,,0.00,WeatherCatV1.21B27,2013-08-07 10:11:00,
2013-08-07 03:16:00,49.7,48.6,29.98,NNW,334,0.0,0.0,96,0.00,,,0.00,WeatherCatV1.21B27,2013-08-07 10:16:00,
2013-08-07 03:21:00,49.8,48.7,29.98,NNW,337,0.0,1.0,96,0.00,,,0.00,WeatherCatV1.21B27,2013-08-07 10:21:00,
2013-08-07 03:26:00,49.8,48.7,29.98,NNW,337,0.0,0.0,96,0.00,,,0.00,WeatherCatV1.21B27,2013-08-07 10:26:00,
2013-08-07 03:31:00,49.7,48.6,29.98,NW,326,3.0,3.0,96,0.00,,,0.00,WeatherCatV1.21B27,2013-08-07 10:31:00,
2013-08-07 03:36:00,49.7,48.6,29.98,NNW,337,0.0,0.0,96,0.00,,,0.00,WeatherCatV1.21B27,2013-08-07 10:36:00,
2013-08-07 03:41:00,49.7,48.6,29.98,NNW,337,0.0,0.0,96,0.00,,,0.00,WeatherCatV1.21B27,2013-08-07 10:41:00,
2013-08-07 03:46:00,49.7,48.6,29.98,NNW,337,0.0,0.0,96,0.00,,,0.00,WeatherCatV1.21B27,2013-08-07 10:46:00,
2013-08-07 03:51:00,49.8,48.7,29.98,NNW,337,0.0,0.0,96,0.00,,,0.00,WeatherCatV1.21B27,2013-08-07 10:51:00,
2013-08-07 03:56:00,49.9,48.8,29.98,NNW,337,0.0,0.0,96,0.00,,,0.00,WeatherCatV1.21B27,2013-08-07 10:56:00,
2013-08-07 04:01:00,49.9,48.8,29.98,NNW,337,0.0,0.0,96,0.00,,,0.00,WeatherCatV1.21B27,2013-08-07 11:01:00,
2013-08-07 04:06:00,49.9,48.8,29.98,NNW,337,0.0,0.0,96,0.00,,,0.00,WeatherCatV1.21B27,2013-08-07 11:06:00,
2013-08-07 04:11:00,49.9,48.8,29.98,NNW,337,0.0,0.0,96,0.00,,,0.00,WeatherCatV1.21B27,2013-08-07 11:11:00,
2013-08-07 04:16:00,49.7,48.6,29.98,NNW,337,0.0,0.0,96,0.00,,,0.00,WeatherCatV1.21B27,2013-08-07 11:16:00,
2013-08-07 04:21:00,49.6,48.5,29.98,NNW,337,0.0,2.0,96,0.00,,,0.00,WeatherCatV1.21B27,2013-08-07 11:21:00,
2013-08-07 04:26:00,49.5,48.4,29.98,NNW,337,0.0,0.0,96,0.00,,,0.00,WeatherCatV1.21B27,2013-08-07 11:26:00,
2013-08-07 04:31:00,49.5,48.4,29.98,NNW,337,0.0,0.0,96,0.00,,,0.00,WeatherCatV1.21B27,2013-08-07 11:31:00,
2013-08-07 04:36:00,49.5,48.7,29.98,NNW,337,0.0,0.0,97,0.00,,,0.00,WeatherCatV1.21B27,2013-08-07 11:36:00,
2013-08-07 04:41:00,49.6,48.8,29.98,NNW,337,0.0,0.0,97,0.00,,,0.00,WeatherCatV1.21B27,2013-08-07 11:41:00,
2013-08-07 04:46:00,49.6,48.8,29.97,NNW,337,0.0,0.0,97,0.00,,,0.00,WeatherCatV1.21B27,2013-08-07 11:46:00,
2013-08-07 04:51:00,49.7,48.9,29.97,NNW,337,0.0,0.0,97,0.00,,,0.00,WeatherCatV1.21B27,2013-08-07 11:51:00,
2013-08-07 04:56:00,49.7,48.9,29.97,NNW,337,0.0,0.0,97,0.00,,,0.00,WeatherCatV1.21B27,2013-08-07 11:56:00,
2013-08-07 05:01:00,49.6,48.8,29.98,NNW,337,0.0,0.0,97,0.00,,,0.00,WeatherCatV1.21B27,2013-08-07 12:01:00,
2013-08-07 05:06:00,49.6,48.8,29.98,NNW,337,0.0,0.0,97,0.00,,,0.00,WeatherCatV1.21B27,2013-08-07 12:06:00,
2013-08-07 05:11:00,49.6,48.8,29.98,NNW,337,0.0,0.0,97,0.00,,,0.00,WeatherCatV1.21B27,2013-08-07 12:11:00,
2013-08-07 05:16:00,49.6,48.8,29.98,NNW,337,0.0,2.0,97,0.00,,,0.00,WeatherCatV1.21B27,2013-08-07 12:16:00,
2013-08-07 05:21:00,49.5,48.7,29.98,NNW,337,0.0,0.0,97,0.00,,,0.00,WeatherCatV1.21B27,2013-08-07 12:21:00,
2013-08-07 05:26:00,49.5,48.7,29.98,NNW,337,0.0,0.0,97,0.00,,,0.00,WeatherCatV1.21B27,2013-08-07 12:26:00,
2013-08-07 05:31:00,49.5,48.7,29.97,NNW,337,0.0,0.0,97,0.00,,,0.00,WeatherCatV1.21B27,2013-08-07 12:31:00,
2013-08-07 05:36:00,49.6,48.8,29.97,NNW,337,0.0,0.0,97,0.00,,,0.00,WeatherCatV1.21B27,2013-08-07 12:36:00,
2013-08-07 05:41:00,49.6,48.8,29.97,NNW,337,0.0,0.0,97,0.00,,,0.00,WeatherCatV1.21B27,2013-08-07 12:41:00,
2013-08-07 05:46:00,49.7,48.9,29.97,NNW,337,0.0,0.0,97,0.00,,,0.00,WeatherCatV1.21B27,2013-08-07 12:46:00,
2013-08-07 05:51:00,49.8,49.0,29.97,NNW,337,0.0,0.0,97,0.00,,,0.00,WeatherCatV1.21B27,2013-08-07 12:51:00,
2013-08-07 05:56:00,49.9,49.1,29.97,NNW,337,1.0,2.0,97,0.00,,,0.00,WeatherCatV1.21B27,2013-08-07 12:56:00,
2013-08-07 06:01:00,49.9,49.1,29.97,NNW,337,0.0,0.0,97,0.00,,,0.00,WeatherCatV1.21B27,2013-08-07 13:01:00,
2013-08-07 06:06:00,50.0,49.2,29.97,NNW,337,0.0,0.0,97,0.00,,,0.00,WeatherCatV1.21B27,2013-08-07 13:06:00,
2013-08-07 06:11:00,50.1,49.3,29.97,NNW,337,0.0,0.0,97,0.00,,,0.00,WeatherCatV1.21B27,2013-08-07 13:11:00,
2013-08-07 06:16:00,50.1,49.3,29.98,NNW,337,0.0,0.0,97,0.00,,,0.00,WeatherCatV1.21B27,2013-08-07 13:16:00,
2013-08-07 06:21:00,50.1,49.3,29.98,NNW,337,0.0,0.0,97,0.00,,,0.00,WeatherCatV1.21B27,2013-08-07 13:21:00,
2013-08-07 06:26:00,50.1,49.3,29.98,NNW,337,0.0,0.0,97,0.00,,,0.00,WeatherCatV1.21B27,2013-08-07 13:26:00,
2013-08-07 06:31:00,50.0,49.2,29.99,NNW,337,0.0,0.0,97,0.00,,,0.00,WeatherCatV1.21B27,2013-08-07 13:31:00,
2013-08-07 06:36:00,50.1,49.3,29.99,NNW,337,0.0,0.0,97,0.00,,,0.00,WeatherCatV1.21B27,2013-08-07 13:36:00,
2013-08-07 06:41:00,50.1,49.3,29.99,NNW,337,0.0,0.0,97,0.00,,,0.00,WeatherCatV1.21B27,2013-08-07 13:41:00,
2013-08-07 06:46:00,50.1,49.3,29.99,NNW,337,0.0,0.0,97,0.00,,,0.00,WeatherCatV1.21B27,2013-08-07 13:46:00,
2013-08-07 06:51:00,50.2,49.4,29.99,NNW,337,0.0,0.0,97,0.00,,,0.00,WeatherCatV1.21B27,2013-08-07 13:51:00,
2013-08-07 06:56:00,50.3,49.5,29.99,NNW,337,0.0,0.0,97,0.00,,,0.00,WeatherCatV1.21B27,2013-08-07 13:56:00,
2013-08-07 07:01:00,50.4,49.6,29.99,NNW,337,0.0,0.0,97,0.00,,,0.00,WeatherCatV1.21B27,2013-08-07 14:01:00,
2013-08-07 07:06:00,50.5,49.7,29.99,NNW,337,0.0,0.0,97,0.00,,,0.00,WeatherCatV1.21B27,2013-08-07 14:06:00,
2013-08-07 07:11:00,50.6,49.8,29.99,NNW,337,0.0,0.0,97,0.00,,,0.00,WeatherCatV1.21B27,2013-08-07 14:11:00,
2013-08-07 07:16:00,50.7,49.9,29.99,NNW,337,0.0,0.0,97,0.00,,,0.00,WeatherCatV1.21B27,2013-08-07 14:16:00,
2013-08-07 07:21:00,50.7,49.9,29.99,NNW,337,0.0,0.0,97,0.00,,,0.00,WeatherCatV1.21B27,2013-08-07 14:21:00,
2013-08-07 07:26:00,50.8,50.0,29.99,NNW,337,0.0,0.0,97,0.00,,,0.00,WeatherCatV1.21B27,2013-08-07 14:26:00,
2013-08-07 07:31:00,50.8,50.0,30.00,NNW,337,0.0,0.0,97,0.00,,,0.00,WeatherCatV1.21B27,2013-08-07 14:31:00,
2013-08-07 07:36:00,50.9,50.1,30.00,NNW,337,0.0,0.0,97,0.00,,,0.00,WeatherCatV1.21B27,2013-08-07 14:36:00,
2013-08-07 07:41:00,50.9,50.1,30.00,NNW,337,0.0,0.0,97,0.00,,,0.00,WeatherCatV1.21B27,2013-08-07 14:41:00,
2013-08-07 07:46:00,50.9,50.1,30.00,NNW,337,0.0,0.0,97,0.00,,,0.00,WeatherCatV1.21B27,2013-08-07 14:46:00,
2013-08-07 07:51:00,51.1,50.3,30.00,NNW,337,0.0,0.0,97,0.00,,,0.00,WeatherCatV1.21B27,2013-08-07 14:51:00,
2013-08-07 07:56:00,51.1,50.3,30.00,NNW,337,0.0,0.0,97,0.00,,,0.00,WeatherCatV1.21B27,2013-08-07 14:56:00,
2013-08-07 08:01:00,51.1,50.3,30.01,NNW,337,0.0,0.0,97,0.00,,,0.00,WeatherCatV1.21B27,2013-08-07 15:01:00,
2013-08-07 08:06:00,51.1,50.3,30.01,NNW,337,0.0,0.0,97,0.00,,,0.00,WeatherCatV1.21B27,2013-08-07 15:06:00,
2013-08-07 08:11:00,51.1,50.3,30.01,NNW,337,0.0,0.0,97,0.00,,,0.00,WeatherCatV1.21B27,2013-08-07 15:11:00,
2013-08-07 08:16:00,51.2,50.4,30.01,NNW,337,0.0,0.0,97,0.00,,,0.00,WeatherCatV1.21B27,2013-08-07 15:16:00,
2013-08-07 08:21:00,51.2,50.4,30.01,NNW,337,0.0,0.0,97,0.00,,,0.00,WeatherCatV1.21B27,2013-08-07 15:21:00,
2013-08-07 08:26:00,51.2,50.4,30.01,NNW,337,0.0,0.0,97,0.00,,,0.00,WeatherCatV1.21B27,2013-08-07 15:26:00,
2013-08-07 08:31:00,51.3,50.5,30.02,NNW,337,0.0,0.0,97,0.00,,,0.00,WeatherCatV1.21B27,2013-08-07 15:31:00,
2013-08-07 08:36:00,51.4,50.6,30.02,NNW,339,0.0,0.0,97,0.00,,,0.00,WeatherCatV1.21B27,2013-08-07 15:36:00,
2013-08-07 08:41:00,51.4,50.6,30.02,NNW,340,0.0,0.0,97,0.00,,,0.00,WeatherCatV1.21B27,2013-08-07 15:41:00,
2013-08-07 08:46:00,51.5,50.7,30.02,NNW,340,0.0,1.0,97,0.00,,,0.00,WeatherCatV1.21B27,2013-08-07 15:46:00,
2013-08-07 08:51:00,51.4,50.6,30.02,NNW,339,0.0,0.0,97,0.00,,,0.00,WeatherCatV1.21B27,2013-08-07 15:51:00,
2013-08-07 08:56:00,51.7,50.9,30.02,NNW,340,0.0,0.0,97,0.00,,,0.00,WeatherCatV1.21B27,2013-08-07 15:56:00,
2013-08-07 09:01:00,51.9,51.1,30.02,NNW,340,0.0,0.0,97,0.00,,,0.00,WeatherCatV1.21B27,2013-08-07 16:01:00,
2013-08-07 09:06:00,52.1,51.3,30.02,NNW,340,0.0,0.0,97,0.00,,,0.00,WeatherCatV1.21B27,2013-08-07 16:06:00,
2013-08-07 09:11:00,52.1,51.3,30.02,NNW,340,0.0,0.0,97,0.00,,,0.00,WeatherCatV1.21B27,2013-08-07 16:11:00,
2013-08-07 09:16:00,52.2,51.7,30.02,NNW,340,0.0,0.0,98,0.00,,,0.00,WeatherCatV1.21B27,2013-08-07 16:16:00,
2013-08-07 09:21:00,52.2,51.7,30.02,NNW,340,0.0,2.0,98,0.00,,,0.00,WeatherCatV1.21B27,2013-08-07 16:21:00,
2013-08-07 09:26:00,52.1,51.5,30.02,NNW,343,0.0,0.0,98,0.00,,,0.00,WeatherCatV1.21B27,2013-08-07 16:26:00,
2013-08-07 09:31:00,52.3,51.8,30.02,NE,47,0.0,1.0,98,0.00,,,0.00,WeatherCatV1.21B27,2013-08-07 16:31:00,
2013-08-07 09:36:00,52.6,51.8,30.02,ENE,69,0.0,0.0,97,0.00,,,0.00,WeatherCatV1.21B27,2013-08-07 16:36:00,
2013-08-07 09:41:00,52.8,52.0,30.02,ENE,75,0.0,0.0,97,0.00,,,0.00,WeatherCatV1.21B27,2013-08-07 16:41:00,
2013-08-07 09:46:00,52.9,52.3,30.04,SE,134,0.0,1.0,98,0.00,,,0.00,WeatherCatV1.21B27,2013-08-07 16:46:00,
2013-08-07 09:51:00,53.0,52.2,30.04,SE,131,0.0,1.0,97,0.00,,,0.00,WeatherCatV1.21B27,2013-08-07 16:51:00,
2013-08-07 09:56:00,53.0,51.9,30.04,SSE,149,0.0,0.0,96,0.00,,,0.00,WeatherCatV1.21B27,2013-08-07 16:56:00,
2013-08-07 10:01:00,53.2,52.1,30.04,SE,146,0.0,1.0,96,0.00,,,0.00,WeatherCatV1.21B27,2013-08-07 17:01:00,
2013-08-07 10:06:00,53.6,52.5,30.04,SE,144,0.0,1.0,96,0.00,,,0.00,WeatherCatV1.21B27,2013-08-07 17:06:00,
2013-08-07 10:11:00,54.0,52.3,30.04,SE,144,0.0,1.0,94,0.00,,,0.00,WeatherCatV1.21B27,2013-08-07 17:11:00,
2013-08-07 10:16:00,54.3,51.7,30.04,South,186,0.0,0.0,91,0.00,,,0.00,WeatherCatV1.21B27,2013-08-07 17:16:00,
2013-08-07 10:21:00,54.7,52.1,30.04,South,189,0.0,0.0,91,0.00,,,0.00,WeatherCatV1.21B27,2013-08-07 17:21:00,
2013-08-07 10:26:00,55.0,52.1,30.04,South,190,0.0,1.0,90,0.00,,,0.00,WeatherCatV1.21B27,2013-08-07 17:26:00,
2013-08-07 10:31:00,55.4,52.5,30.04,SE,144,1.0,3.0,90,0.00,,,0.00,WeatherCatV1.21B27,2013-08-07 17:31:00,
2013-08-07 10:36:00,56.0,52.5,30.04,SE,144,0.0,1.0,88,0.00,,,0.00,WeatherCatV1.21B27,2013-08-07 17:36:00,
2013-08-07 10:41:00,56.8,53.0,30.04,SSW,192,1.0,3.0,87,0.00,,,0.00,WeatherCatV1.21B27,2013-08-07 17:41:00,
2013-08-07 10:46:00,57.8,53.3,30.05,SE,139,0.0,1.0,85,0.00,,,0.00,WeatherCatV1.21B27,2013-08-07 17:46:00,
2013-08-07 10:51:00,58.5,53.3,30.05,SSE,152,0.0,2.0,83,0.00,,,0.00,WeatherCatV1.21B27,2013-08-07 17:51:00,
2013-08-07 10:53:00,58.7,52.9,30.05,SE,146,0.0,1.0,81,0.00,,,0.00,WeatherCatV1.21B27,2013-08-07 17:53:00,
2013-08-07 10:58:00,59.1,53.3,30.05,SSE,152,0.0,2.0,81,0.00,,,0.00,WeatherCatV1.21B27,2013-08-07 17:58:00,
2013-08-07 11:03:00,59.4,53.2,30.05,SE,132,2.0,2.0,80,0.00,,,0.00,WeatherCatV1.21B27,2013-08-07 18:03:00,
2013-08-07 11:08:00,60.4,53.8,30.05,SE,144,0.0,1.0,79,0.00,,,0.00,WeatherCatV1.21B27,2013-08-07 18:08:00,
2013-08-07 11:13:00,61.2,53.2,30.05,SE,127,1.0,3.0,75,0.00,,,0.00,WeatherCatV1.21B27,2013-08-07 18:13:00,
2013-08-07 11:18:00,61.4,53.8,30.05,SSE,163,1.0,2.0,76,0.00,,,0.00,WeatherCatV1.21B27,2013-08-07 18:18:00,
2013-08-07 11:23:00,62.3,53.5,30.05,SE,133,0.0,0.0,73,0.00,,,0.00,WeatherCatV1.21B27,2013-08-07 18:23:00,
2013-08-07 11:28:00,62.7,53.5,30.05,SE,146,0.0,3.0,72,0.00,,,0.00,WeatherCatV1.21B27,2013-08-07 18:28:00,
2013-08-07 11:33:00,63.3,54.1,30.05,SE,144,1.0,1.0,72,0.00,,,0.00,WeatherCatV1.21B27,2013-08-07 18:33:00,
2013-08-07 11:38:00,63.4,53.4,30.05,SW,218,0.0,2.0,70,0.00,,,0.00,WeatherCatV1.21B27,2013-08-07 18:38:00,
2013-08-07 11:43:00,63.7,54.1,30.05,SE,133,1.0,2.0,71,0.00,,,0.00,WeatherCatV1.21B27,2013-08-07 18:43:00,
2013-08-07 11:48:00,64.2,53.8,30.04,SSE,154,0.0,2.0,69,0.00,,,0.00,WeatherCatV1.21B27,2013-08-07 18:48:00,
2013-08-07 11:53:00,64.8,54.4,30.04,SE,134,0.0,2.0,69,0.00,,,0.00,WeatherCatV1.21B27,2013-08-07 18:53:00,
2013-08-07 11:58:00,65.2,54.0,30.04,ENE,69,0.0,1.0,67,0.00,,,0.00,WeatherCatV1.21B27,2013-08-07 18:58:00,
2013-08-07 12:03:00,65.6,54.3,30.05,ESE,112,0.0,2.0,67,0.00,,,0.00,WeatherCatV1.21B27,2013-08-07 19:03:00,
2013-08-07 12:08:00,66.3,54.6,30.05,NNW,347,0.0,1.0,66,0.00,,,0.00,WeatherCatV1.21B27,2013-08-07 19:08:00,
2013-08-07 12:13:00,67.0,54.8,30.05,SE,146,1.0,1.0,65,0.00,,,0.00,WeatherCatV1.21B27,2013-08-07 19:13:00,
2013-08-07 12:18:00,67.5,54.9,30.05,SSE,148,2.0,2.0,64,0.00,,,0.00,WeatherCatV1.21B27,2013-08-07 19:18:00,
2013-08-07 12:23:00,67.5,54.5,30.05,SE,128,0.0,1.0,63,0.00,,,0.00,WeatherCatV1.21B27,2013-08-07 19:23:00,
2013-08-07 12:28:00,67.7,54.2,30.05,SE,129,0.0,1.0,62,0.00,,,0.00,WeatherCatV1.21B27,2013-08-07 19:28:00,
2013-08-07 12:33:00,67.9,54.8,30.05,SE,139,1.0,2.0,63,0.00,,,0.00,WeatherCatV1.21B27,2013-08-07 19:33:00,
2013-08-07 12:38:00,68.3,54.8,30.05,SE,142,0.0,2.0,62,0.00,,,0.00,WeatherCatV1.21B27,2013-08-07 19:38:00,
2013-08-07 12:43:00,68.4,54.4,30.05,SE,141,0.0,2.0,61,0.00,,,0.00,WeatherCatV1.21B27,2013-08-07 19:43:00,
2013-08-07 12:48:00,68.7,54.2,30.04,SE,130,1.0,3.0,60,0.00,,,0.00,WeatherCatV1.21B27,2013-08-07 19:48:00,
2013-08-07 12:53:00,68.5,55.0,30.04,East,98,0.0,1.0,62,0.00,,,0.00,WeatherCatV1.21B27,2013-08-07 19:53:00,
2013-08-07 12:58:00,69.0,54.5,30.04,ESE,121,0.0,3.0,60,0.00,,,0.00,WeatherCatV1.21B27,2013-08-07 19:58:00,
2013-08-07 13:03:00,69.4,54.9,30.04,SE,146,0.0,0.0,60,0.00,,,0.00,WeatherCatV1.21B27,2013-08-07 20:03:00,
2013-08-07 13:08:00,69.8,54.8,30.04,SE,139,3.0,3.0,59,0.00,,,0.00,WeatherCatV1.21B27,2013-08-07 20:08:00,
2013-08-07 13:13:00,69.9,54.9,30.04,SE,135,1.0,1.0,59,0.00,,,0.00,WeatherCatV1.21B27,2013-08-07 20:13:00,
2013-08-07 13:18:00,70.4,55.4,30.04,SE,124,1.0,2.0,59,0.00,,,0.00,WeatherCatV1.21B27,2013-08-07 20:18:00,
2013-08-07 13:23:00,70.4,54.4,30.04,East,88,0.0,2.0,57,0.00,,,0.00,WeatherCatV1.21B27,2013-08-07 20:23:00,
2013-08-07 13:28:00,70.4,54.9,30.04,SSW,213,1.0,1.0,58,0.00,,,0.00,WeatherCatV1.21B27,2013-08-07 20:28:00,
2013-08-07 13:33:00,70.5,54.5,30.04,NW,309,1.0,2.0,57,0.00,,,0.00,WeatherCatV1.21B27,2013-08-07 20:33:00,
2013-08-07 13:38:00,70.5,55.0,30.04,East,98,0.0,2.0,58,0.00,,,0.00,WeatherCatV1.21B27,2013-08-07 20:38:00,
2013-08-07 13:43:00,70.7,54.7,30.04,SE,132,0.0,1.0,57,0.00,,,0.00,WeatherCatV1.21B27,2013-08-07 20:43:00,
2013-08-07 13:48:00,70.5,54.5,30.04,SE,125,1.0,2.0,57,0.00,,,0.00,WeatherCatV1.21B27,2013-08-07 20:48:00,
2013-08-07 13:53:00,70.1,54.6,30.04,SSW,194,0.0,1.0,58,0.00,,,0.00,WeatherCatV1.21B27,2013-08-07 20:53:00,
2013-08-07 13:58:00,70.3,54.3,30.04,SE,132,0.0,0.0,57,0.00,,,0.00,WeatherCatV1.21B27,2013-08-07 20:58:00,
2013-08-07 14:03:00,70.4,54.4,30.04,SE,137,0.0,3.0,57,0.00,,,0.00,WeatherCatV1.21B27,2013-08-07 21:03:00,
2013-08-07 14:08:00,70.2,54.2,30.04,ESE,123,0.0,2.0,57,0.00,,,0.00,WeatherCatV1.21B27,2013-08-07 21:08:00,
2013-08-07 14:13:00,70.0,54.5,30.04,East,96,0.0,1.0,58,0.00,,,0.00,WeatherCatV1.21B27,2013-08-07 21:13:00,
2013-08-07 14:18:00,70.1,55.1,30.04,SE,134,0.0,1.0,59,0.00,,,0.00,WeatherCatV1.21B27,2013-08-07 21:18:00,
2013-08-07 14:23:00,70.7,54.2,30.04,ENE,69,0.0,1.0,56,0.00,,,0.00,WeatherCatV1.21B27,2013-08-07 21:23:00,
2013-08-07 14:28:00,70.8,54.8,30.04,ESE,118,0.0,2.0,57,0.00,,,0.00,WeatherCatV1.21B27,2013-08-07 21:28:00,
2013-08-07 14:33:00,70.9,54.4,30.04,ESE,115,0.0,1.0,56,0.00,,,0.00,WeatherCatV1.21B27,2013-08-07 21:33:00,
2013-08-07 14:38:00,70.8,54.8,30.04,SE,139,0.0,0.0,57,0.00,,,0.00,WeatherCatV1.21B27,2013-08-07 21:38:00,
2013-08-07 14:43:00,70.6,54.1,30.04,SSE,155,2.0,2.0,56,0.00,,,0.00,WeatherCatV1.21B27,2013-08-07 21:43:00,
2013-08-07 14:48:00,70.4,54.4,30.04,North,355,0.0,1.0,57,0.00,,,0.00,WeatherCatV1.21B27,2013-08-07 21:48:00,
2013-08-07 14:53:00,70.4,54.9,30.04,SE,131,1.0,1.0,58,0.00,,,0.00,WeatherCatV1.21B27,2013-08-07 21:53:00,
2013-08-07 14:58:00,70.2,54.2,30.04,SE,141,1.0,2.0,57,0.00,,,0.00,WeatherCatV1.21B27,2013-08-07 21:58:00,
2013-08-07 15:03:00,69.6,54.2,30.04,NW,320,0.0,3.0,58,0.00,,,0.00,WeatherCatV1.21B27,2013-08-07 22:03:00,
2013-08-07 15:08:00,69.4,54.4,30.04,ESE,123,0.0,1.0,59,0.00,,,0.00,WeatherCatV1.21B27,2013-08-07 22:08:00,
2013-08-07 15:13:00,69.2,54.2,30.04,SSE,164,1.0,3.0,59,0.00,,,0.00,WeatherCatV1.21B27,2013-08-07 22:13:00,
2013-08-07 15:18:00,68.9,54.0,30.03,NNW,339,0.0,3.0,59,0.00,,,0.00,WeatherCatV1.21B27,2013-08-07 22:18:00,
2013-08-07 15:23:00,68.2,53.8,30.03,SE,140,0.0,3.0,60,0.00,,,0.00,WeatherCatV1.21B27,2013-08-07 22:23:00,
2013-08-07 15:28:00,67.9,53.9,30.03,SE,144,0.0,1.0,61,0.00,,,0.00,WeatherCatV1.21B27,2013-08-07 22:28:00,
2013-08-07 15:33:00,67.7,53.8,30.03,ESE,121,0.0,1.0,61,0.00,,,0.00,WeatherCatV1.21B27,2013-08-07 22:33:00,
2013-08-07 15:38:00,67.4,53.5,30.03,NE,37,0.0,1.0,61,0.00,,,0.00,WeatherCatV1.21B27,2013-08-07 22:38:00,
2013-08-07 15:43:00,67.4,54.4,30.03,SE,129,1.0,2.0,63,0.00,,,0.00,WeatherCatV1.21B27,2013-08-07 22:43:00,
2013-08-07 15:48:00,67.4,53.9,30.02,SE,133,2.0,3.0,62,0.00,,,0.00,WeatherCatV1.21B27,2013-08-07 22:48:00,
2013-08-07 15:53:00,67.2,54.2,30.02,SSE,147,0.0,2.0,63,0.00,,,0.00,WeatherCatV1.21B27,2013-08-07 22:53:00,
2013-08-07 15:58:00,67.4,53.9,30.02,SE,141,1.0,1.0,62,0.00,,,0.00,WeatherCatV1.21B27,2013-08-07 22:58:00,
2013-08-07 16:03:00,67.4,54.4,30.02,NNE,31,0.0,1.0,63,0.00,,,0.00,WeatherCatV1.21B27,2013-08-07 23:03:00,
2013-08-07 16:08:00,67.4,53.9,30.02,SE,145,1.0,2.0,62,0.00,,,0.00,WeatherCatV1.21B27,2013-08-07 23:08:00,
2013-08-07 16:13:00,67.3,54.3,30.02,SE,129,2.0,2.0,63,0.00,,,0.00,WeatherCatV1.21B27,2013-08-07 23:13:00,
2013-08-07 16:18:00,67.4,54.4,30.02,North,10,0.0,1.0,63,0.00,,,0.00,WeatherCatV1.21B27,2013-08-07 23:18:00,
2013-08-07 16:23:00,67.5,54.0,30.02,SE,143,0.0,1.0,62,0.00,,,0.00,WeatherCatV1.21B27,2013-08-07 23:23:00,
2013-08-07 16:28:00,67.4,53.9,30.02,NNW,327,0.0,2.0,62,0.00,,,0.00,WeatherCatV1.21B27,2013-08-07 23:28:00,
2013-08-07 16:33:00,67.0,54.0,30.02,ESE,120,0.0,2.0,63,0.00,,,0.00,WeatherCatV1.21B27,2013-08-07 23:33:00,
2013-08-07 16:38:00,66.8,53.8,30.02,ENE,69,0.0,0.0,63,0.00,,,0.00,WeatherCatV1.21B27,2013-08-07 23:38:00,
2013-08-07 16:43:00,66.4,53.8,30.02,SE,142,0.0,2.0,64,0.00,,,0.00,WeatherCatV1.21B27,2013-08-07 23:43:00,
2013-08-07 16:48:00,66.2,54.1,30.02,ESE,121,0.0,2.0,65,0.00,,,0.00,WeatherCatV1.21B27,2013-08-07 23:48:00,
2013-08-07 16:53:00,66.0,53.9,30.02,SSE,150,0.0,2.0,65,0.00,,,0.00,WeatherCatV1.21B27,2013-08-07 23:53:00,
2013-08-07 16:58:00,65.8,54.1,30.02,SSE,152,0.0,0.0,66,0.00,,,0.00,WeatherCatV1.21B27,2013-08-07 23:58:00,
2013-08-07 17:03:00,65.8,54.1,30.02,SSE,150,1.0,3.0,66,0.00,,,0.00,WeatherCatV1.21B27,2013-08-08 00:03:00,
2013-08-07 17:08:00,65.6,53.9,30.02,SE,133,0.0,1.0,66,0.00,,,0.00,WeatherCatV1.21B27,2013-08-08 00:08:00,
2013-08-07 17:13:00,65.3,53.6,30.02,SE,143,0.0,3.0,66,0.00,,,0.00,WeatherCatV1.21B27,2013-08-08 00:13:00,
2013-08-07 17:18:00,65.1,53.9,30.02,SE,142,0.0,2.0,67,0.00,,,0.00,WeatherCatV1.21B27,2013-08-08 00:18:00,
2013-08-07 17:23:00,64.9,53.7,30.02,SE,142,0.0,0.0,67,0.00,,,0.00,WeatherCatV1.21B27,2013-08-08 00:23:00,
2013-08-07 17:28:00,64.7,53.9,30.02,SE,140,0.0,1.0,68,0.00,,,0.00,WeatherCatV1.21B27,2013-08-08 00:28:00,
2013-08-07 17:33:00,64.5,53.7,30.02,SE,137,0.0,0.0,68,0.00,,,0.00,WeatherCatV1.21B27,2013-08-08 00:33:00,
2013-08-07 17:38:00,64.3,53.9,30.02,SE,136,0.0,1.0,69,0.00,,,0.00,WeatherCatV1.21B27,2013-08-08 00:38:00,
2013-08-07 17:43:00,64.3,53.9,30.02,SE,136,0.0,1.0,69,0.00,,,0.00,WeatherCatV1.21B27,2013-08-08 00:43:00,
2013-08-07 17:48:00,64.2,53.8,30.01,SE,136,0.0,0.0,69,0.00,,,0.00,WeatherCatV1.21B27,2013-08-08 00:48:00,
2013-08-07 17:53:00,64.3,53.9,30.01,SE,136,0.0,1.0,69,0.00,,,0.00,WeatherCatV1.21B27,2013-08-08 00:53:00,
2013-08-07 17:58:00,64.2,53.8,30.01,SE,136,0.0,2.0,69,0.00,,,0.00,WeatherCatV1.21B27,2013-08-08 00:58:00,
2013-08-07 18:03:00,64.1,53.7,30.00,SE,136,0.0,1.0,69,0.00,,,0.00,WeatherCatV1.21B27,2013-08-08 01:03:00,
2013-08-07 18:08:00,64.0,53.6,30.00,SE,127,0.0,2.0,69,0.00,,,0.00,WeatherCatV1.21B27,2013-08-08 01:08:00,
2013-08-07 18:13:00,63.8,53.8,30.00,SE,131,0.0,2.0,70,0.00,,,0.00,WeatherCatV1.21B27,2013-08-08 01:13:00,
2013-08-07 18:18:00,63.6,54.0,30.00,SE,132,0.0,0.0,71,0.00,,,0.00,WeatherCatV1.21B27,2013-08-08 01:18:00,
2013-08-07 18:23:00,63.6,54.0,30.00,SE,132,0.0,1.0,71,0.00,,,0.00,WeatherCatV1.21B27,2013-08-08 01:23:00,
2013-08-07 18:28:00,63.5,53.9,30.00,SE,132,0.0,0.0,71,0.00,,,0.00,WeatherCatV1.21B27,2013-08-08 01:28:00,
2013-08-07 18:33:00,63.4,53.8,30.00,SE,132,0.0,0.0,71,0.00,,,0.00,WeatherCatV1.21B27,2013-08-08 01:33:00,
2013-08-07 18:38:00,63.2,54.0,30.00,SE,132,0.0,1.0,72,0.00,,,0.00,WeatherCatV1.21B27,2013-08-08 01:38:00,
2013-08-07 18:43:00,63.0,53.8,30.00,SE,132,0.0,0.0,72,0.00,,,0.00,WeatherCatV1.21B27,2013-08-08 01:43:00,
2013-08-07 18:48:00,62.9,53.7,30.00,SE,132,0.0,1.0,72,0.00,,,0.00,WeatherCatV1.21B27,2013-08-08 01:48:00,
2013-08-07 18:53:00,62.7,53.9,30.00,SE,132,0.0,0.0,73,0.00,,,0.00,WeatherCatV1.21B27,2013-08-08 01:53:00,
2013-08-07 18:58:00,62.5,53.7,30.00,ESE,106,0.0,1.0,73,0.00,,,0.00,WeatherCatV1.21B27,2013-08-08 01:58:00,
2013-08-07 19:03:00,62.3,53.5,30.00,East,81,0.0,1.0,73,0.00,,,0.00,WeatherCatV1.21B27,2013-08-08 02:03:00,
2013-08-07 19:08:00,62.2,53.4,30.00,East,81,0.0,0.0,73,0.00,,,0.00,WeatherCatV1.21B27,2013-08-08 02:08:00,
2013-08-07 19:13:00,62.0,53.6,30.00,East,81,0.0,0.0,74,0.00,,,0.00,WeatherCatV1.21B27,2013-08-08 02:13:00,
2013-08-07 19:18:00,61.8,53.4,29.99,East,81,0.0,0.0,74,0.00,,,0.00,WeatherCatV1.21B27,2013-08-08 02:18:00,
2013-08-07 19:23:00,61.7,53.7,29.99,East,81,0.0,0.0,75,0.00,,,0.00,WeatherCatV1.21B27,2013-08-08 02:23:00,
2013-08-07 19:28:00,61.5,53.5,29.99,East,81,0.0,0.0,75,0.00,,,0.00,WeatherCatV1.21B27,2013-08-08 02:28:00,
2013-08-07 19:33:00,61.3,53.7,29.99,East,81,0.0,0.0,76,0.00,,,0.00,WeatherCatV1.21B27,2013-08-08 02:33:00,
2013-08-07 19:38:00,61.1,53.5,29.99,East,81,0.0,0.0,76,0.00,,,0.00,WeatherCatV1.21B27,2013-08-08 02:38:00,
2013-08-07 19:43:00,61.0,53.4,29.99,East,81,0.0,0.0,76,0.00,,,0.00,WeatherCatV1.21B27,2013-08-08 02:43:00,
2013-08-07 19:48:00,60.9,53.6,30.00,East,81,0.0,0.0,77,0.00,,,0.00,WeatherCatV1.21B27,2013-08-08 02:48:00,
2013-08-07 19:53:00,60.8,53.5,30.00,East,81,0.0,0.0,77,0.00,,,0.00,WeatherCatV1.21B27,2013-08-08 02:53:00,
2013-08-07 19:58:00,60.7,53.8,30.00,East,81,1.0,1.0,78,0.00,,,0.00,WeatherCatV1.21B27,2013-08-08 02:58:00,
2013-08-07 20:03:00,60.6,53.7,29.99,East,81,0.0,0.0,78,0.00,,,0.00,WeatherCatV1.21B27,2013-08-08 03:03:00,
2013-08-07 20:08:00,60.5,53.6,29.99,North,358,0.0,0.0,78,0.00,,,0.00,WeatherCatV1.21B27,2013-08-08 03:08:00,
2013-08-07 20:13:00,60.3,53.8,29.99,NNW,347,0.0,2.0,79,0.00,,,0.00,WeatherCatV1.21B27,2013-08-08 03:13:00,
2013-08-07 20:18:00,60.1,53.9,29.99,NNW,348,0.0,1.0,80,0.00,,,0.00,WeatherCatV1.21B27,2013-08-08 03:18:00,
2013-08-07 20:23:00,59.9,54.0,29.99,NNW,348,0.0,1.0,81,0.00,,,0.00,WeatherCatV1.21B27,2013-08-08 03:23:00,
2013-08-07 20:28:00,59.6,53.4,29.99,NNW,336,2.0,3.0,80,0.00,,,0.00,WeatherCatV1.21B27,2013-08-08 03:28:00,
2013-08-07 20:33:00,59.3,53.5,29.99,NNW,334,3.0,4.0,81,0.00,,,0.00,WeatherCatV1.21B27,2013-08-08 03:33:00,
2013-08-07 20:38:00,59.0,53.2,29.99,NNW,336,2.0,5.0,81,0.00,,,0.00,WeatherCatV1.21B27,2013-08-08 03:38:00,
2013-08-07 20:43:00,58.7,53.2,29.99,NNW,343,2.0,5.0,82,0.00,,,0.00,WeatherCatV1.21B27,2013-08-08 03:43:00,
2013-08-07 20:48:00,58.4,52.9,29.99,North,354,1.0,4.0,82,0.00,,,0.00,WeatherCatV1.21B27,2013-08-08 03:48:00,
2013-08-07 20:53:00,58.1,53.0,29.99,NNW,334,3.0,4.0,83,0.00,,,0.00,WeatherCatV1.21B27,2013-08-08 03:53:00,
2013-08-07 20:58:00,57.8,52.7,29.99,NNW,333,4.0,4.0,83,0.00,,,0.00,WeatherCatV1.21B27,2013-08-08 03:58:00,
2013-08-07 21:01:00,57.7,52.9,29.99,North,355,3.0,4.0,84,0.00,,,0.00,WeatherCatV1.21B27,2013-08-08 04:01:00,
2013-08-07 21:06:00,57.5,53.0,29.99,NNW,327,5.0,6.0,85,0.00,,,0.00,WeatherCatV1.21B27,2013-08-08 04:06:00,
2013-08-07 21:11:00,57.3,53.2,29.99,NNW,335,3.0,4.0,86,0.00,,,0.00,WeatherCatV1.21B27,2013-08-08 04:11:00,
2013-08-07 21:16:00,57.2,53.0,30.00,NNW,330,3.0,4.0,86,0.00,,,0.00,WeatherCatV1.21B27,2013-08-08 04:16:00,
2013-08-07 21:21:00,57.2,53.0,30.00,NNW,339,2.0,4.0,86,0.00,,,0.00,WeatherCatV1.21B27,2013-08-08 04:21:00,
2013-08-07 21:26:00,57.2,53.0,30.00,North,350,1.0,3.0,86,0.00,,,0.00,WeatherCatV1.21B27,2013-08-08 04:26:00,
2013-08-07 21:31:00,57.2,53.0,30.00,NNW,334,0.0,2.0,86,0.00,,,0.00,WeatherCatV1.21B27,2013-08-08 04:31:00,
2013-08-07 21:36:00,57.1,53.0,30.00,NNW,334,0.0,1.0,86,0.00,,,0.00,WeatherCatV1.21B27,2013-08-08 04:36:00,
2013-08-07 21:41:00,57.0,52.8,30.00,NNW,338,0.0,2.0,86,0.00,,,0.00,WeatherCatV1.21B27,2013-08-08 04:41:00,
2013-08-07 21:46:00,56.9,52.8,30.00,NNW,339,0.0,0.0,86,0.00,,,0.00,WeatherCatV1.21B27,2013-08-08 04:46:00,
2013-08-07 21:51:00,56.9,52.8,30.00,NNW,339,0.0,0.0,86,0.00,,,0.00,WeatherCatV1.21B27,2013-08-08 04:51:00,
2013-08-07 21:56:00,56.9,53.1,30.00,NNW,339,0.0,2.0,87,0.00,,,0.00,WeatherCatV1.21B27,2013-08-08 04:56:00,
2013-08-07 22:01:00,56.7,52.6,30.00,NNW,339,0.0,0.0,86,0.00,,,0.00,WeatherCatV1.21B27,2013-08-08 05:01:00,
2013-08-07 22:06:00,56.7,52.6,30.00,NNW,339,0.0,0.0,86,0.00,,,0.00,WeatherCatV1.21B27,2013-08-08 05:06:00,
2013-08-07 22:11:00,56.6,52.5,30.00,NNW,339,0.0,0.0,86,0.00,,,0.00,WeatherCatV1.21B27,2013-08-08 05:11:00,
2013-08-07 22:16:00,56.6,52.5,30.00,NNW,339,0.0,0.0,86,0.00,,,0.00,WeatherCatV1.21B27,2013-08-08 05:16:00,
2013-08-07 22:21:00,56.6,52.5,30.00,NNW,339,0.0,0.0,86,0.00,,,0.00,WeatherCatV1.21B27,2013-08-08 05:21:00,
2013-08-07 22:26:00,56.5,52.4,30.00,NNW,339,0.0,0.0,86,0.00,,,0.00,WeatherCatV1.21B27,2013-08-08 05:26:00,
2013-08-07 22:31:00,56.4,52.3,30.00,NNW,339,0.0,0.0,86,0.00,,,0.00,WeatherCatV1.21B27,2013-08-08 05:31:00,
2013-08-07 22:36:00,56.4,52.6,30.00,NNW,339,0.0,0.0,87,0.00,,,0.00,WeatherCatV1.21B27,2013-08-08 05:36:00,
2013-08-07 22:41:00,56.4,52.6,30.00,NNW,339,0.0,0.0,87,0.00,,,0.00,WeatherCatV1.21B27,2013-08-08 05:41:00,
2013-08-07 22:46:00,56.4,52.6,29.99,NNW,339,0.0,0.0,87,0.00,,,0.00,WeatherCatV1.21B27,2013-08-08 05:46:00,
2013-08-07 22:51:00,56.5,53.0,29.99,NNW,339,0.0,0.0,88,0.00,,,0.00,WeatherCatV1.21B27,2013-08-08 05:51:00,
2013-08-07 22:56:00,56.6,52.8,29.99,NNW,339,0.0,0.0,87,0.00,,,0.00,WeatherCatV1.21B27,2013-08-08 05:56:00,
2013-08-07 23:01:00,56.7,52.9,29.99,NNW,339,0.0,1.0,87,0.00,,,0.00,WeatherCatV1.21B27,2013-08-08 06:01:00,
2013-08-07 23:06:00,56.8,53.0,29.99,NNW,339,0.0,0.0,87,0.00,,,0.00,WeatherCatV1.21B27,2013-08-08 06:06:00,
2013-08-07 23:11:00,56.9,52.8,29.99,NNW,339,0.0,0.0,86,0.00,,,0.00,WeatherCatV1.21B27,2013-08-08 06:11:00,
2013-08-07 23:16:00,57.0,52.5,29.99,NNW,339,0.0,0.0,85,0.00,,,0.00,WeatherCatV1.21B27,2013-08-08 06:16:00,
2013-08-07 23:21:00,57.1,52.0,29.99,NNW,339,0.0,0.0,83,0.00,,,0.00,WeatherCatV1.21B27,2013-08-08 06:21:00,
2013-08-07 23:26:00,57.1,51.7,29.99,NNW,339,0.0,0.0,82,0.00,,,0.00,WeatherCatV1.21B27,2013-08-08 06:26:00,
2013-08-07 23:31:00,57.2,51.1,29.99,NNW,339,0.0,0.0,80,0.00,,,0.00,WeatherCatV1.21B27,2013-08-08 06:31:00,
2013-08-07 23:36:00,57.4,52.3,29.99,NNW,339,0.0,0.0,83,0.00,,,0.00,WeatherCatV1.21B27,2013-08-08 06:36:00,
2013-08-07 23:41:00,57.5,52.4,29.99,NNW,339,0.0,0.0,83,0.00,,,0.00,WeatherCatV1.21B27,2013-08-08 06:41:00,
2013-08-07 23:46:00,57.4,52.3,29.99,NNW,339,0.0,0.0,83,0.00,,,0.00,WeatherCatV1.21B27,2013-08-08 06:46:00,
2013-08-07 23:51:00,57.2,52.1,29.99,NNW,339,0.0,0.0,83,0.00,,,0.00,WeatherCatV1.21B27,2013-08-08 06:51:00,
2013-08-07 23:56:00,56.8,52.0,29.99,NNW,339,0.0,0.0,84,0.00,,,0.00,WeatherCatV1.21B27,2013-08-08 06:56:00,